Weather Roundup
Issued by NWS Springfield, MO

Home | Current Version | Previous Version | Text Only | Print | Product List | Glossary On
Versions: 1 2 3 4 5 6 7 8 9 10 11 12 13 14 15 16 17 18 19 20 21 22 23 24 25 26 27 28 29 30 31 32 33 34 35 36 37 38 39 40 41 42 43 44 45 46 47 48 49 50
000
NZUS99 KSGF 211207
HRRSGF

HOURLY WEATHER
NATIONAL WEATHER SERVICE SPRINGFIELD MO
700 AM CDT SUN SEP 21 2014

......SGF CWA......

CITY           SKY/WX    TMP DP  RH WIND       PRES   REMARKS
SPRINGFIELD    CLEAR     70  67  90 NW8       30.06R
6HR MIN TEMP:  69; 6HR MAX TEMP:  73; 6HR PCP:  0.01;

JOPLIN         CLOUDY    70  68  93 N9        30.09R
6HR MIN TEMP:  69; 6HR MAX TEMP:  75; 6HR PCP:  0.01;

WEST PLAINS    CLOUDY    69  66  90 W7        30.03S
6HR MIN TEMP:  68; 6HR MAX TEMP:  70; 6HR PCP:  0.08;

ROLLA          CLEAR     63  56  78 N14       30.03R
6HR MIN TEMP:  63; 6HR MAX TEMP:  72; 6HR PCP:  0.01;

OSAGE BEACH    CLEAR     64  54  68 N9        30.07R
BRANSON        CLOUDY    72  66  83 W3        30.07R

......SURROUNDING SGF CWA......

CITY           SKY/WX    TMP DP  RH WIND       PRES   REMARKS
CHANUTE        CLEAR     66  59  78 NE10      30.11R
PARSONS        PTCLDY    68  64  87 NE6       30.11R
EMPORIA        CLEAR     60  57  89 N5        30.14R
GROVE OK       CLOUDY    72  72 100 CALM      30.07F
ROGERS AR      TSTM      70  66  87 W8        30.10R
SILOAM SPRINGS CLOUDY    68  63  83 N12G18    30.10R
HARRISON AR    MOCLDY    72  66  81 W8        30.06R
NEAR YELLVILLE MOCLDY    68  63  83 SE3       30.03R

......KANSAS AND MISSOURI......

CITY           SKY/WX    TMP DP  RH WIND       PRES   REMARKS
KANSAS CTY INT CLEAR     57  52  83 W7        30.12R
DOWNTOWN KC    CLEAR     60  52  74 NW3       30.11R
COLUMBIA       CLEAR     58  53  84 NW6       30.07R
SEDALIA        CLEAR     58  50  75 NW5       30.09R
ST JOSEPH      CLEAR     52  50  93 CALM      30.13R
ST LOUIS       PTCLDY    65  54  67 NW9       30.01R
SPIRIT OF STL  CLEAR     65  54  67 N7        30.01R
KIRKSVILLE     CLEAR     53  49  86 W6        30.05R
WICHITA        PTCLDY    68  55  63 NE16      30.14R
TOPEKA         CLEAR     57  55  93 CALM      30.14R
OLATHE         CLEAR     56  50  80 CALM      30.12R

......TENNESSEE......

CITY           SKY/WX    TMP DP  RH WIND       PRES   REMARKS
MEMPHIS        PTCLDY    72  66  81 SW5       30.00S
NASHVILLE      MOCLDY    68  64  87 CALM      29.99R

......ARKANSAS.......

CITY           SKY/WX    TMP DP  RH WIND       PRES   REMARKS
FAYETTEVILLE   CLOUDY    66  66 100 S5        30.07R
FT SMITH       MOCLDY    70  67  90 CALM      30.04R
LITTLE ROCK    PTCLDY    69  65  86 W6        30.02R

......OKLAHOMA.......

CITY           SKY/WX    TMP DP  RH WIND       PRES   REMARKS
TULSA          CLOUDY    74  68  81 N8        30.07R
PONCA CITY     CLOUDY    73  68  84 N5        30.07R
MCALESTER      MOCLDY    67  65  93 CALM      30.07R FOG
OKLAHOMA CITY  PTCLDY    67  64  90 S3        30.08R

......IOWA............

CITY           SKY/WX    TMP DP  RH WIND       PRES   REMARKS
DES MOINES     CLEAR     56  47  71 NW9       30.04R
QUAD CITIES    CLEAR     58  51  78 W13G21    29.91R

......ILLINOIS........

CITY           SKY/WX    TMP DP  RH WIND       PRES   REMARKS
QUINCY         CLEAR     55  52  89 W7        30.00R
CHICAGO        PTCLDY    58  51  78 W14G24    29.79S




USA.gov is the U.S. government's official web portal to all federal, state and local government web resources and services.